TimeMDT,TemperatureF,Dew PointF,Humidity,Sea Level PressureIn,VisibilityMPH,Wind Direction,Wind SpeedMPH,Gust SpeedMPH,PrecipitationIn,Events,Conditions,WindDirDegrees,DateUTC
12:00 AM,34,,,30.11,9,NW,8.9,,,,,310,2013-07-17 06:00:00
12:00 AM,33.8,-9999,N/A,30.11,9.0,NW,4.6,-,N/A,,Clear,310,2013-07-17 06:00:00
1:00 AM,35.6,-9999,N/A,30.10,9.0,WNW,5.8,-,N/A,,Clear,300,2013-07-17 07:00:00
2:00 AM,33.8,-9999,N/A,30.10,9.0,WNW,6.9,-,N/A,,Clear,290,2013-07-17 08:00:00
3:00 AM,33,,,30.10,9,West,17.9,,,,,270,2013-07-17 09:00:00
3:00 AM,33.8,-9999,N/A,30.10,9.0,West,9.2,-,N/A,,Clear,270,2013-07-17 09:00:00
4:00 AM,33.8,-9999,N/A,30.10,9.0,West,10.4,-,N/A,,Clear,260,2013-07-17 10:00:00
5:00 AM,33.8,-9999,N/A,30.09,9.0,West,10.4,-,N/A,,Clear,280,2013-07-17 11:00:00
6:00 AM,35,,,30.09,9,WNW,10.4,,,,,290,2013-07-17 12:00:00
6:00 AM,35.6,-9999,N/A,30.09,9.0,WNW,10.4,-,N/A,,Clear,290,2013-07-17 12:00:00
7:00 AM,35.6,-9999,N/A,30.08,9.0,WNW,10.4,-,N/A,,Clear,290,2013-07-17 13:00:00
8:00 AM,37.4,-9999,N/A,30.08,9.0,WNW,10.4,-,N/A,,Clear,300,2013-07-17 14:00:00
9:00 AM,39,,,30.08,9,WNW,9.2,,,,,290,2013-07-17 15:00:00
9:00 AM,39.2,-9999,N/A,30.08,9.0,WNW,9.2,-,N/A,,Clear,290,2013-07-17 15:00:00
10:00 AM,39.2,-9999,N/A,30.07,9.0,NW,4.6,-,N/A,,Clear,310,2013-07-17 16:00:00
11:00 AM,42.8,-9999,N/A,30.06,9.0,Calm,Calm,-,N/A,,Clear,0,2013-07-17 17:00:00
12:00 PM,45,,,30.06,9,NNW,2.3,,,,,340,2013-07-17 18:00:00
12:00 PM,44.6,-9999,N/A,30.06,9.0,NNW,2.3,-,N/A,,Clear,340,2013-07-17 18:00:00
1:00 PM,46.4,-9999,N/A,30.07,9.0,North,3.5,-,N/A,,Clear,10,2013-07-17 19:00:00
2:00 PM,46.4,-9999,N/A,30.06,9.0,NNE,3.5,-,N/A,,Clear,30,2013-07-17 20:00:00
3:00 PM,45,,,30.06,9,NE,5.8,,,,,40,2013-07-17 21:00:00
3:00 PM,44.6,-9999,N/A,30.06,9.0,NNE,5.8,-,N/A,,Clear,30,2013-07-17 21:00:00
4:00 PM,42.8,-9999,N/A,30.07,9.0,NNE,6.9,-,N/A,,Clear,30,2013-07-17 22:00:00
5:00 PM,42.8,-9999,N/A,30.06,9.0,NE,9.2,-,N/A,,Clear,50,2013-07-17 23:00:00
6:00 PM,44,,,30.06,9,NE,9.2,,,,,50,2013-07-18 00:00:00
6:00 PM,44.6,-9999,N/A,30.06,9.0,ENE,8.1,-,N/A,,Clear,60,2013-07-18 00:00:00
7:00 PM,44.6,-9999,N/A,30.05,9.0,ENE,9.2,-,N/A,,Clear,70,2013-07-18 01:00:00
8:00 PM,44.6,-9999,N/A,30.04,9.0,ENE,11.5,-,N/A,,Clear,70,2013-07-18 02:00:00
9:00 PM,44,,,30.04,9,ENE,11.5,,,,,70,2013-07-18 03:00:00
9:00 PM,44.6,-9999,N/A,30.04,9.0,ENE,11.5,-,N/A,,Clear,70,2013-07-18 03:00:00
10:00 PM,42.8,-9999,N/A,30.06,9.0,East,9.2,-,N/A,,Clear,100,2013-07-18 04:00:00
11:00 PM,39.2,-9999,N/A,30.04,9.0,East,11.5,-,N/A,,Clear,90,2013-07-18 05:00:00